DW1920 Weather Reports


Display with metric or nautical units.
time (UTC)temp
F
wind
direction
speed
MPH
gust
MPH
rain 1hr
in
rain 24hr
in
rain mn
in
humidity
%
barometer
mb
20210723230002 65 325 6.0 17.0 0.00 0.00 0.00 76 1017.8
20210723225002 66 324 9.0 20.0 0.00 0.00 0.00 74 1017.6
20210723224002 67 316 14.0 24.0 0.00 0.00 0.00 72 1017.3
20210723223002 68 324 14.0 23.0 0.00 0.00 0.00 71 1017.5
20210723222003 68 316 10.0 29.0 0.00 0.00 0.00 71 1017.5
20210723221003 70 298 12.0 21.0 0.00 0.00 0.00 73 1017.4
20210723220002 69 273 10.0 12.0 0.00 0.00 0.00 73 1017.0
20210723215001 70 275 5.0 8.0 0.00 0.00 0.00 73 1016.6
20210723214002 70 266 7.0 9.0 0.00 0.00 0.00 74 1016.4
20210723213003 70 258 2.0 7.0 0.00 0.00 0.00 74 1016.4
20210723212002 71 265 4.0 8.0 0.00 0.00 0.00 73 1016.6
20210723211002 72 269 2.0 6.0 0.00 0.00 0.00 73 1016.6
20210723210003 72 245 5.0 12.0 0.00 0.01 0.00 72 1016.7
20210723205003 72 254 7.0 13.0 0.00 0.06 0.00 72 1016.7
20210723204002 71 251 3.0 10.0 0.00 0.06 0.00 74 1016.6
20210723203002 71 255 7.0 12.0 0.00 0.06 0.00 74 1016.6
20210723202002 71 250 6.0 11.0 0.00 0.06 0.00 76 1016.6
20210723201002 70 255 7.0 13.0 0.00 0.06 0.00 77 1016.7
20210723200002 68 261 9.0 12.0 0.00 0.06 0.00 78 1016.6
20210723195002 67 262 6.0 11.0 0.00 0.06 0.00 79 1016.6
20210723194002 67 250 5.0 9.0 0.00 0.06 0.00 79 1016.5
20210723193002 67 246 3.0 8.0 0.00 0.06 0.00 79 1016.5
20210723192002 67 234 4.0 9.0 0.00 0.06 0.00 80 1016.5
20210723191003 68 232 3.0 9.0 0.00 0.06 0.00 78 1016.5
20210723190002 70 226 6.0 9.0 0.00 0.06 0.00 77 1016.5
20210723185002 70 207 4.0 7.0 0.00 0.06 0.00 78 1016.5
20210723184002 71 220 4.0 9.0 0.00 0.06 0.00 77 1016.5
20210723183003 70 195 8.0 10.0 0.00 0.06 0.00 77 1016.5
20210723182003 70 190 7.0 9.0 0.00 0.06 0.00 77 1016.5
20210723181002 70 178 6.0 8.0 0.00 0.06 0.00 76 1016.6
20210723180003 70 191 7.0 11.0 0.00 0.06 0.00 76 1016.6
20210723175002 71 182 8.0 10.0 0.00 0.06 0.00 75 1016.7
20210723174003 71 146 6.0 9.0 0.00 0.06 0.00 79 1016.7
20210723173007 70 181 5.0 8.0 0.00 0.06 0.00 77 1016.9
20210723172002 71 186 7.0 11.0 0.00 0.06 0.00 76 1017.0
20210723171002 72 211 7.0 10.0 0.00 0.06 0.00 76 1017.0
20210723170003 71 191 7.0 9.0 0.00 0.06 0.00 76 1017.1
20210723165002 71 155 6.0 10.0 0.00 0.06 0.00 77 1017.3
20210723164002 70 178 8.0 9.0 0.00 0.06 0.00 76 1017.3
20210723163002 70 178 6.0 9.0 0.00 0.06 0.00 76 1017.3
20210723162002 70 177 4.0 7.0 0.00 0.06 0.00 77 1017.3
20210723161002 70 176 4.0 7.0 0.00 0.06 0.00 76 1017.3
20210723160002 70 200 5.0 8.0 0.00 0.06 0.00 76 1017.4
20210723155002 70 185 5.0 9.0 0.00 0.06 0.00 75 1017.5
20210723154003 72 154 7.0 10.0 0.00 0.06 0.00 74 1017.5
20210723153002 73 112 5.0 9.0 0.00 0.06 0.00 73 1017.5
20210723152003 73 284 7.0 11.0 0.00 0.06 0.00 67 1017.6
20210723151002 72 293 4.0 9.0 0.00 0.06 0.00 69 1017.7
20210723150002 71 296 4.0 8.0 0.00 0.06 0.00 70 1017.7
20210723145002 71 317 5.0 11.0 0.00 0.06 0.00 71 1017.8
20210723144002 70 149 3.0 6.0 0.00 0.06 0.00 72 1017.8
20210723143002 71 295 4.0 9.0 0.00 0.06 0.00 72 1017.8
20210723142002 70 336 7.0 12.0 0.00 0.06 0.00 71 1017.8
20210723141003 70 298 8.0 11.0 0.00 0.06 0.00 73 1017.8
20210723140002 69 291 8.0 10.0 0.00 0.06 0.00 73 1017.8
20210723135002 69 293 7.0 11.0 0.00 0.06 0.00 74 1017.7
20210723134002 68 295 6.0 10.0 0.00 0.06 0.00 74 1017.6
20210723133002 68 319 4.0 11.0 0.00 0.06 0.00 75 1017.7
20210723132002 68 315 7.0 9.0 0.00 0.06 0.00 75 1017.8
20210723131002 67 304 4.0 11.0 0.00 0.06 0.00 76 1017.7
20210723130002 67 301 6.0 10.0 0.00 0.06 0.00 77 1017.7
20210723125002 66 301 6.0 10.0 0.00 0.06 0.00 77 1017.7
20210723124002 66 312 7.0 11.0 0.00 0.06 0.00 78 1017.6
20210723123003 65 303 6.0 10.0 0.00 0.06 0.00 78 1017.6
20210723122002 65 307 6.0 9.0 0.00 0.06 0.00 78 1017.5
20210723121003 65 309 7.0 10.0 0.00 0.06 0.00 79 1017.5
20210723120002 64 304 6.0 10.0 0.00 0.06 0.00 79 1017.5
20210723115003 64 295 7.0 11.0 0.00 0.06 0.00 79 1017.3
20210723114002 64 314 7.0 11.0 0.00 0.06 0.00 80 1017.2
20210723113002 63 319 7.0 11.0 0.00 0.06 0.00 80 1017.2
20210723112003 63 311 7.0 10.0 0.00 0.06 0.00 80 1017.1
20210723111002 63 330 4.0 9.0 0.00 0.06 0.00 81 1017.0
20210723110002 62 336 4.0 9.0 0.00 0.06 0.00 82 1017.0
20210723105002 62 317 5.0 10.0 0.00 0.06 0.00 83 1016.9
20210723104002 61 312 7.0 10.0 0.00 0.06 0.00 83 1017.0
20210723103002 61 315 6.0 11.0 0.00 0.06 0.00 83 1016.9
20210723102003 61 303 8.0 11.0 0.00 0.06 0.00 84 1016.9
20210723101003 61 310 7.0 12.0 0.00 0.06 0.00 84 1016.8
20210723100002 60 315 8.0 12.0 0.00 0.06 0.00 84 1016.7
20210723095002 60 314 9.0 12.0 0.00 0.06 0.00 85 1016.6
20210723094002 60 310 9.0 13.0 0.00 0.06 0.00 85 1016.5
20210723093003 60 312 8.0 12.0 0.00 0.06 0.00 85 1016.5
20210723092002 60 313 8.0 13.0 0.00 0.06 0.00 86 1016.4
20210723091002 60 311 9.0 13.0 0.00 0.06 0.00 86 1016.3
20210723090002 60 302 9.0 12.0 0.00 0.06 0.00 87 1016.3
20210723085002 60 306 8.0 12.0 0.00 0.06 0.00 87 1016.2
20210723084001 60 308 9.0 12.0 0.00 0.06 0.00 87 1016.1
20210723083002 60 304 8.0 11.0 0.00 0.06 0.00 87 1016.1
20210723082001 60 308 8.0 11.0 0.00 0.06 0.00 87 1016.1
20210723081003 60 309 9.0 12.0 0.00 0.06 0.00 87 1016.0
20210723080010 60 305 9.0 12.0 0.00 0.06 0.00 88 1016.0
20210723075002 60 306 9.0 12.0 0.00 0.06 0.00 88 1016.0
20210723074002 60 300 9.0 12.0 0.00 0.06 0.00 88 1016.1
20210723073011 60 298 9.0 11.0 0.00 0.06 0.00 88 1015.9
20210723072003 60 310 7.0 10.0 0.00 0.06 0.00 87 1016.0
20210723071002 60 299 6.0 10.0 0.00 0.06 0.00 87 1016.1
20210723070002 60 301 4.0 7.0 0.00 0.06 0.00 87 1016.1
20210723065002 60 328 3.0 11.0 0.00 0.06 0.00 87 1016.2
20210723064002 60 302 8.0 12.0 0.00 0.06 0.00 87 1016.0
20210723063003 60 302 8.0 11.0 0.00 0.06 0.00 87 1016.0
20210723062002 60 298 8.0 10.0 0.00 0.06 0.00 87 1016.1
20210723061002 60 296 8.0 10.0 0.00 0.06 0.00 87 1016.2
20210723060002 60 297 7.0 9.0 0.00 0.06 0.00 87 1016.2
20210723055002 60 308 7.0 9.0 0.00 0.06 0.00 86 1016.3
20210723054003 61 302 7.0 9.0 0.00 0.06 0.00 86 1016.4
20210723053002 61 301 7.0 9.0 0.00 0.06 0.00 85 1016.4
20210723052016 61 288 7.0 9.0 0.00 0.06 0.00 85 1016.5
20210723051002 61 301 6.0 10.0 0.00 0.06 0.00 85 1016.4
20210723050002 61 298 8.0 11.0 0.00 0.06 0.00 84 1016.5
20210723045010 62 296 8.0 11.0 0.00 0.06 0.00 84 1016.5
20210723044001 62 293 9.0 11.0 0.00 0.06 0.00 84 1016.5
20210723043002 62 297 8.0 10.0 0.00 0.06 0.00 84 1016.6
20210723042002 62 294 8.0 11.0 0.00 0.06 0.00 83 1016.6
20210723041038 62 296 8.0 10.0 0.00 0.06 0.00 83 1016.6
20210723040002 62 293 9.0 10.0 0.00 0.06 0.06 82 1016.7
20210723035002 63 295 7.0 9.0 0.00 0.06 0.06 82 1016.8
20210723034002 63 288 7.0 11.0 0.00 0.06 0.06 82 1016.8
20210723033016 63 292 8.0 10.0 0.00 0.06 0.06 81 1016.9
20210723032002 63 285 6.0 10.0 0.00 0.06 0.06 81 1016.8
20210723031002 63 278 8.0 11.0 0.00 0.06 0.06 80 1016.7
20210723030003 64 276 9.0 11.0 0.00 0.06 0.06 80 1016.6
20210723025002 63 280 7.0 9.0 0.00 0.06 0.06 80 1016.5
20210723024002 64 284 8.0 11.0 0.00 0.06 0.06 80 1016.4
20210723023002 64 275 8.0 10.0 0.00 0.06 0.06 80 1016.4
20210723022002 64 280 9.0 9.0 0.00 0.06 0.06 80 1016.4
20210723021003 64 260 5.0 10.0 0.00 0.06 0.06 80 1016.4
20210723020002 64 276 8.0 10.0 0.00 0.06 0.06 80 1016.4
20210723015001 64 275 9.0 11.0 0.00 0.06 0.06 80 1016.4
20210723014002 64 280 8.0 10.0 0.00 0.06 0.06 81 1016.3
20210723013003 64 279 6.0 8.0 0.00 0.06 0.06 82 1016.3
20210723012003 64 285 6.0 10.0 0.00 0.06 0.06 81 1016.3
20210723011002 64 277 9.0 11.0 0.00 0.06 0.06 82 1016.3
20210723010002 63 277 8.0 10.0 0.00 0.06 0.06 83 1016.2
20210723005002 64 278 4.0 8.0 0.00 0.06 0.06 83 1016.2
20210723004003 64 269 5.0 8.0 0.00 0.06 0.06 82 1016.2
20210723003003 64 279 5.0 12.0 0.00 0.06 0.06 82 1016.0
20210723002002 64 274 7.0 13.0 0.00 0.06 0.06 83 1016.0
20210723001002 64 271 7.0 10.0 0.00 0.06 0.06 83 1015.9
20210723000002 64 295 6.0 11.0 0.00 0.06 0.06 82 1015.5
20210722235002 65 265 7.0 12.0 0.00 0.06 0.06 82 1015.4
20210722234003 65 270 9.0 13.0 0.00 0.06 0.06 82 1015.4
20210722233003 65 273 11.0 13.0 0.00 0.06 0.06 81 1015.3
20210722232003 65 270 9.0 12.0 0.00 0.06 0.06 80 1015.2
20210722231002 65 255 6.0 9.0 0.00 0.06 0.06 80 1015.1